Regional Weather Roundup
Issued by NWS

Home | Current Version | Previous Version | Text Only | Print | Product List | Glossary Off
Versions: 1 2 3 4 5 6 7 8 9 10 11 12 13 14 15 16 17 18 19 20 21 22 23 24 25 26 27 28 29 30 31 32 33 34 35 36 37 38 39 40 41 42 43 44 45 46 47 48 49 50

000
ASUS45 KBOU 161707
RWRCO

WEATHER ROUNDUP FOR COLORADO
NATIONAL WEATHER SERVICE DENVER/BOULDER CO
1100 AM MDT TUE SEP 16 2014

NOTE: "FAIR" INDICATES FEW OR NO CLOUDS BELOW 12000 FEET WITH NO
SIGNIFICANT WEATHER AND/OR OBSTRUCTIONS TO VISIBILITY.

COZ001>005-013-030-031-161800-
...NORTHWEST COLORADO...

CITY           SKY/WX    TMP DP  RH WIND       PRES   REMARKS
CRAIG          SUNNY     71  42  35 NE6       30.29F
HAYDEN         SUNNY     68  36  30 E7        30.30F
MEEKER         SUNNY     68  40  35 CALM      30.30F
MOUNT WERNER   NOT AVBL
STEAMBOAT SPGS SUNNY     62  41  44 CALM      30.33F
WALDEN         SUNNY     63  34  34 CALM      30.39F
$$

COZ006>008-011-161800-
...WEST CENTRAL VALLEYS...

CITY           SKY/WX    TMP DP  RH WIND       PRES   REMARKS
GRAND JUNCTION SUNNY     74  41  30 SE5       30.22F
MONTROSE       SUNNY     74  45  35 N6        30.29F
EAGLE          MOSUNNY   61  39  44 CALM      30.37F
RIFLE          SUNNY     67  41  38 CALM      30.28F
DELTA          SUNNY     73  41  31 CALM      30.26F
NUCLA          SUNNY     72  46  40 CALM      30.34S
$$

COZ017>023-064>068-161800-
...SOUTHWEST COLORADO...

CITY           SKY/WX    TMP DP  RH WIND       PRES   REMARKS
DURANGO        SUNNY     69  49  48 VRB3      30.35F
CORTEZ         SUNNY     73  50  44 CALM      30.30F
PAGOSA SPRINGS SUNNY     69  41  36 CALM      30.41F
TELLURIDE      NOT AVBL
WOLF CREEK PAS MOSUNNY   52  32  46 E8G17     30.68F
$$

COZ009-010-012-014-032>034-037-058>063-161800-
...CENTRAL COLORADO...

CITY           SKY/WX    TMP DP  RH WIND       PRES   REMARKS
ASPEN          SUNNY     67  38  34 CALM      30.39F
BUENA VISTA    MOSUNNY   66  36  32 SE5       30.42F
COPPER MTN     CLOUDY    54  30  40 W21G26    30.69S
BERTHOUD PASS  CLOUDY    45  43  93 NW13G28   30.71R
COTTONWOOD PAS MOSUNNY   64  32  29 CALM      30.54F
GUNNISON       SUNNY     61  39  44 CALM      30.46F
KREMMLING      SUNNY     59  36  41 CALM      30.41F
LEADVILLE      MOSUNNY   58  33  39 VRB3      30.53F
MONARCH PASS   SUNNY     50  32  50 W6        30.79F
SALIDA         SUNNY     68  41  38 CALM      30.45F
SUNLIGHT       SUNNY     59  36  41 CALM      30.62S
WILKERSON PASS NOT AVBL
$$

COZ069>075-161800-
...SAN LUIS VALLEY/SANGRE DE CRISTO MOUNTAINS...

CITY           SKY/WX    TMP DP  RH WIND       PRES   REMARKS
ALAMOSA        SUNNY     63  44  50 VRB3      30.42F
LA VETA PASS   NOT AVBL
SAGUACHE       SUNNY     64  45  48 SE7       30.44F
$$

COZ035-036-038>040-161800-
...NORTHERN COLORADO FRONT RANGE...

CITY           SKY/WX    TMP DP  RH WIND       PRES   REMARKS
DENVER INTL AP MOSUNNY   81  36  19 VRB3      30.19F
DMNS CITY PARK   N/A     81  43  25 S3        30.19S
AURORA         MOSUNNY   78  40  25 VRB2      30.22F
FRONT RANGE AP MOSUNNY   82  41  23 W8        30.21F
ERIE MUNI ARPT MOSUNNY   81  39  22 S3        30.17S
BOULDER MUN AP MOSUNNY   79  50  36 SE3       30.17F
CENTENNIAL     MOSUNNY   78  39  24 VRB6      30.23S
BROOMFIELD     MOSUNNY   81  45  28 SE5       30.22
FORT COLLINS   SUNNY     79  46  31 NE5       30.16F
LONGMONT       MOSUNNY   80  48  32 E5        30.17S
$$

COZ041-046-047-076>085-087-088-161800-
...PIKES PEAK/PALMER DIVIDE AND SOUTHERN FOOTHILLS...

CITY           SKY/WX    TMP DP  RH WIND       PRES   REMARKS
COLO. SPRINGS  MOSUNNY   82  33  17 NW10G17   30.27S
A. F. ACADEMY  SUNNY     78  34  20 NE6       30.28F
ELLICOTT       NOT AVBL
FALCON         SUNNY     78  30  17 CALM      30.32S
FORT CARSON    SUNNY     76  51  41 VRB1      30.24F
LIMON          SUNNY    N/A N/A N/A MISG      30.19
MONUMENT HILL  SUNNY     73  34  23 W6        30.31F
TRINIDAD       SUNNY     76  45  33 E5        30.26S
$$

COZ042>045-048>051-090-091-161800-
...NORTHEAST COLORADO...

CITY           SKY/WX    TMP DP  RH WIND       PRES   REMARKS
GREELEY ARPT   SUNNY     75  52  43 CALM      30.15F
AKRON          SUNNY     75  50  41 W15       30.13F
BURLINGTON     SUNNY     70  53  54 S12       30.14F
WRAY           SUNNY     75  55  49 S8        30.09F
STERLING       SUNNY     79  55  44 SW5       30.08F
HOLYOKE        SUNNY     73  59  60 SW7       30.08F
FORT MORGAN    SUNNY     73  49  43 W12G17    30.13F
$$

COZ086-089-092>099-161800-
...SOUTHEAST COLORADO...

CITY           SKY/WX    TMP DP  RH WIND       PRES   REMARKS
PUEBLO         SUNNY     70  52  52 CALM      30.18F
LA JUNTA       SUNNY     69  54  58 SW7       30.17F
LAMAR          SUNNY     71  54  54 W8        30.13F
SPRINGFIELD      N/A     73  57  57 SW5       30.18F
$$


USA.gov is the U.S. government's official web portal to all federal, state and local government web resources and services.